period_start,C,m1,H,J0,J1,J2,J3,J4,J5,JA,JB,JC,JD,JJ,JK,JN,#
2013-11-16 00:00:54,0.03,0.92,0.00,23.67,25.45,28.20,5.84,30.75,1023.45,2050.99,3110.42,3100.83,3334.00,349.91,325.63,22.02,0000 0000 0000 0000 000000
2013-11-16 00:01:54,0.07,0.92,0.00,23.67,25.45,28.19,5.95,31.00,1023.45,2050.98,3110.17,3100.48,3333.99,349.13,325.15,22.03,0000 0000 0000 0000 000000
2013-11-16 00:02:55,0.12,0.92,0.00,23.69,25.45,28.17,6.02,30.96,1023.45,2050.99,3110.06,3100.24,3333.96,349.95,325.35,22.03,0000 0000 0000 0000 000000
2013-11-16 00:03:55,0.07,0.92,0.00,23.71,25.45,28.17,6.04,31.17,1023.45,2050.98,3110.02,3100.09,3333.91,349.86,325.23,22.04,0000 0000 0000 0000 000000
2013-11-16 00:04:55,0.03,0.92,0.00,23.70,25.44,28.17,5.95,31.13,1023.45,2050.99,3110.00,3100.04,3333.80,349.02,324.45,22.05,0000 0000 0000 0000 000000
2013-11-16 00:05:55,0.03,0.92,0.00,23.71,25.43,28.21,5.99,31.08,1023.45,2050.99,3109.98,3100.01,3333.48,350.97,326.34,22.05,0000 0000 0000 0000 000000
2013-11-16 00:06:55,0.06,0.92,0.00,23.72,25.42,28.22,6.01,31.25,1023.45,2050.99,3109.93,3100.00,3333.24,350.20,325.75,22.06,0000 0000 0000 0000 000000
2013-11-16 00:07:56,0.04,0.92,0.00,23.72,25.42,28.19,6.01,31.17,1023.45,2050.99,3109.67,3100.00,3333.10,349.14,324.66,22.06,0000 0000 0000 0000 000000
2013-11-16 00:08:56,0.05,0.92,0.00,23.73,25.42,28.18,6.02,30.92,1023.45,2050.99,3109.30,3099.99,3333.04,349.70,324.76,22.07,0000 0000 0000 0000 000000
2013-11-16 00:09:56,0.06,0.92,0.00,23.72,25.42,28.18,6.05,31.08,1023.45,2050.99,3109.11,3099.99,3333.01,350.92,326.15,22.08,0000 0000 0000 0000 000000
2013-11-16 00:10:56,0.02,0.92,0.00,23.69,25.42,28.18,5.98,31.13,1023.45,2050.99,3109.04,3099.96,3333.00,349.84,325.60,22.08,0000 0000 0000 0000 000000
2013-11-16 00:11:56,0.01,0.92,0.00,23.68,25.42,28.17,5.96,31.25,1023.45,2050.99,3109.01,3099.79,3333.00,348.58,324.08,22.09,0000 0000 0000 0000 000000
2013-11-16 00:12:57,0.04,0.92,0.00,23.70,25.42,28.17,6.13,31.21,1023.45,2050.99,3109.00,3099.52,3333.00,350.99,326.30,22.09,0000 0000 0000 0000 000000
2013-11-16 00:13:57,0.07,0.92,0.00,23.68,25.41,28.13,5.82,31.04,1023.45,2050.99,3108.97,3099.34,3332.97,348.87,324.34,22.10,0000 0000 0000 0000 000000
2013-11-16 00:14:57,0.04,0.92,0.00,23.69,25.40,28.15,6.09,31.13,1023.45,2050.99,3108.96,3099.24,3332.93,350.58,325.93,22.10,0000 0000 0000 0000 000000
2013-11-16 00:15:57,0.03,0.92,0.00,23.69,25.40,28.18,5.92,31.04,1023.45,2050.99,3108.91,3099.14,3332.94,349.62,325.02,22.11,0000 0000 0000 0000 000000
2013-11-16 00:16:58,0.02,0.92,0.00,23.69,25.40,28.16,5.97,31.08,1023.45,2050.99,3108.55,3099.08,3332.77,350.62,325.96,22.12,0000 0000 0000 0000 000000
2013-11-16 00:17:58,0.09,0.92,0.00,23.71,25.40,28.15,6.09,31.00,1023.45,2050.99,3108.25,3099.03,3332.43,350.41,325.76,22.12,0000 0000 0000 0000 000000
2013-11-16 00:18:58,0.11,0.92,0.00,23.68,25.40,28.17,5.98,30.96,1023.45,2051.00,3108.12,3099.01,3332.22,350.41,326.01,22.13,0000 0000 0000 0000 000000
2013-11-16 00:19:58,0.05,0.93,0.00,23.68,25.40,28.16,6.05,31.04,1023.45,2051.00,3108.04,3099.00,3332.12,350.13,325.51,22.13,0000 0000 0000 0000 000000
2013-11-16 00:20:59,0.02,0.93,0.00,23.66,25.40,28.14,5.99,31.33,1023.45,2051.00,3108.01,3099.00,3332.05,349.48,324.99,22.14,0000 0000 0000 0000 000000
2013-11-16 00:21:59,0.01,0.93,0.00,23.65,25.39,28.13,5.88,30.96,1023.45,2051.01,3108.00,3099.00,3332.02,349.40,324.87,22.15,0000 0000 0000 0000 000000
2013-11-16 00:22:59,0.01,0.93,0.00,23.67,25.39,28.15,5.94,31.21,1023.45,2051.00,3108.00,3099.00,3332.00,349.00,323.99,22.15,0000 0000 0000 0000 000000
2013-11-16 00:23:59,0.00,0.93,0.00,23.67,25.38,28.12,6.03,31.38,1023.45,2051.00,3107.95,3099.00,3332.00,349.50,324.94,22.16,0000 0000 0000 0000 000000
2013-11-16 00:25:00,0.00,0.93,0.00,23.67,25.37,28.09,5.91,31.00,1023.45,2051.02,3107.86,3098.96,3331.99,349.97,325.38,22.16,0000 0000 0000 0000 000000
2013-11-16 00:26:00,0.03,0.93,0.00,23.68,25.37,28.09,5.90,31.00,1023.45,2051.02,3107.53,3098.81,3331.96,350.11,325.49,22.17,0000 0000 0000 0000 000000
2013-11-16 00:27:00,0.09,0.93,0.00,23.68,25.37,28.14,5.82,30.96,1023.45,2051.01,3107.22,3098.39,3331.81,349.54,324.96,22.17,0000 0000 0000 0000 000000
2013-11-16 00:28:00,0.16,0.93,0.00,23.70,25.37,28.14,6.00,30.96,1023.45,2051.00,3107.09,3098.19,3331.64,350.95,326.26,22.18,0000 0000 0000 0000 000000
2013-11-16 00:29:00,0.07,0.93,0.00,23.72,25.37,28.10,5.91,31.21,1023.45,2051.00,3107.04,3098.13,3331.41,349.71,325.09,22.19,0000 0000 0000 0000 000000
2013-11-16 00:30:01,0.06,0.93,0.00,23.69,25.37,28.08,6.07,31.08,1023.45,2051.01,3107.01,3098.05,3331.20,350.15,325.07,22.19,0000 0000 0000 0000 000000
2013-11-16 00:31:01,0.05,0.93,0.00,23.68,25.37,28.09,6.01,31.00,1023.46,2051.02,3107.00,3098.03,3331.10,350.28,325.67,22.20,0000 0000 0000 0000 000000
2013-11-16 00:32:01,0.01,0.93,0.00,23.70,25.37,28.08,5.97,30.83,1023.45,2051.00,3106.98,3098.01,3331.09,350.66,326.29,22.20,0000 0000 0000 0000 000000
2013-11-16 00:33:01,0.00,0.93,0.00,23.70,25.36,28.15,6.10,31.25,1023.45,2051.01,3106.97,3098.00,3331.06,350.64,325.97,22.21,0000 0000 0000 0000 000000
2013-11-16 00:34:02,0.01,0.93,0.00,23.70,25.36,28.11,5.98,31.00,1023.46,2051.03,3106.68,3098.00,3331.02,349.36,324.78,22.22,0000 0000 0000 0000 000000
2013-11-16 00:35:02,0.06,0.93,0.00,23.68,25.35,28.08,5.99,31.00,1023.49,2051.01,3106.30,3098.00,3331.00,349.69,325.12,22.22,0000 0000 0000 0000 000000
2013-11-16 00:36:02,0.04,0.93,0.00,23.67,25.35,28.10,6.02,31.25,1023.48,2051.02,3106.11,3098.00,3330.99,350.06,325.47,22.23,0000 0000 0000 0000 000000
2013-11-16 00:37:02,0.02,0.93,0.00,23.68,25.35,28.07,6.09,31.13,1023.49,2051.01,3106.04,3097.96,3330.98,349.58,325.02,22.23,0000 0000 0000 0000 000000
2013-11-16 00:38:02,0.01,0.93,0.00,23.70,25.35,28.07,5.96,31.08,1023.48,2051.01,3106.01,3097.84,3330.93,349.32,324.76,22.24,0000 0000 0000 0000 000000
2013-11-16 00:39:03,0.03,0.93,0.00,23.71,25.35,28.09,6.07,31.00,1023.49,2051.03,3105.99,3097.69,3330.84,350.77,326.10,22.24,0000 0000 0000 0000 000000
2013-11-16 00:40:03,0.06,0.93,0.00,23.69,25.35,28.14,6.00,30.92,1023.47,2051.02,3105.99,3097.41,3330.58,350.75,325.78,22.25,0000 0000 0000 0000 000000
2013-11-16 00:41:03,0.12,0.93,0.00,23.68,25.35,28.14,5.97,30.79,1023.53,2051.02,3105.91,3097.19,3330.27,351.56,326.87,22.26,0000 0000 0000 0000 000000
2013-11-16 00:42:03,0.10,0.93,0.00,23.67,25.34,28.12,6.03,31.38,1023.51,2051.02,3105.72,3097.09,3330.13,350.71,326.09,22.26,0000 0000 0000 0000 000000
2013-11-16 00:43:03,0.07,0.93,0.00,23.68,25.34,28.10,5.99,31.46,1023.49,2051.03,3105.31,3097.04,3330.05,349.90,325.32,22.27,0000 0000 0000 0000 000000
2013-11-16 00:44:04,0.07,0.93,0.00,23.70,25.33,28.11,5.88,30.67,1023.49,2051.02,3105.12,3097.01,3330.02,348.66,323.83,22.27,0000 0000 0000 0000 000000
2013-11-16 00:45:04,0.02,0.93,0.00,23.72,25.33,28.10,6.01,30.88,1023.49,2051.02,3105.04,3097.00,3330.00,350.76,326.07,22.28,0000 0000 0000 0000 000000
2013-11-16 00:46:04,0.01,0.93,0.00,23.75,25.32,28.10,5.92,30.63,1023.49,2051.05,3105.01,3097.00,3330.00,349.06,324.08,22.29,0000 0000 0000 0000 000000
2013-11-16 00:47:04,0.02,0.93,0.00,23.75,25.32,28.07,6.05,30.92,1023.47,2051.05,3105.00,3097.00,3330.00,350.55,325.57,22.29,0000 0000 0000 0000 000000
2013-11-16 00:48:05,0.00,0.93,0.00,23.72,25.32,28.09,6.00,30.92,1023.46,2051.05,3105.00,3097.00,3330.00,349.94,325.45,22.30,0000 0000 0000 0000 000000
2013-11-16 00:49:05,0.00,0.93,0.00,23.71,25.32,28.07,5.98,30.96,1023.48,2051.05,3104.98,3096.97,3329.97,350.73,325.86,22.30,0000 0000 0000 0000 000000
2013-11-16 00:50:05,0.01,0.93,0.00,23.70,25.32,28.04,5.91,30.67,1023.50,2051.04,3104.88,3096.91,3329.87,350.78,326.12,22.31,0000 0000 0000 0000 000000
2013-11-16 00:51:05,0.03,0.93,0.00,23.71,25.32,28.11,6.01,30.71,1023.54,2051.02,3104.76,3096.92,3329.78,349.88,325.11,22.31,0000 0000 0000 0000 000000
2013-11-16 00:52:05,0.03,0.93,0.00,23.73,25.32,28.06,6.02,31.13,1023.53,2051.06,3104.46,3096.90,3329.62,349.97,325.78,22.32,0000 0000 0000 0000 000000
2013-11-16 00:53:06,0.12,0.93,0.00,23.74,25.32,28.06,5.97,31.13,1023.52,2051.12,3104.23,3096.69,3329.37,349.45,324.84,22.33,0000 0000 0000 0000 000000
2013-11-16 00:54:06,0.16,0.93,0.00,23.72,25.32,28.05,5.95,30.79,1023.61,2051.11,3104.09,3096.50,3329.29,349.93,325.33,22.33,0000 0000 0000 0000 000000
2013-11-16 00:55:06,0.04,0.94,0.00,23.71,25.32,28.06,6.01,30.71,1023.57,2051.11,3104.04,3096.32,3329.14,349.92,325.88,22.34,0000 0000 0000 0000 000000
2013-11-16 00:56:06,0.07,0.94,0.00,23.70,25.32,28.06,5.97,31.00,1023.58,2051.06,3104.01,3096.14,3329.05,349.51,324.96,22.34,0000 0000 0000 0000 000000
2013-11-16 00:57:07,0.02,0.94,0.00,23.71,25.32,28.12,5.83,30.63,1023.59,2051.09,3104.00,3096.08,3329.02,349.68,325.12,22.35,0000 0000 0000 0000 000000
2013-11-16 00:58:07,0.03,0.94,0.00,23.71,25.32,28.05,6.10,30.92,1023.78,2051.08,3103.98,3096.04,3329.00,350.92,326.31,22.36,0000 0000 0000 0000 000000
2013-11-16 00:59:07,0.00,0.94,0.00,23.70,25.32,28.02,6.13,30.88,1023.89,2051.08,3103.92,3096.01,3329.00,350.59,326.07,22.36,0000 0000 0000 0000 000000
2013-11-16 01:00:07,0.01,0.94,0.00,23.71,25.32,28.07,5.88,30.92,1023.88,2051.11,3103.76,3096.00,3329.00,350.79,326.24,22.37,0000 0000 0000 0000 000000
2013-11-16 01:01:07,0.06,0.94,0.00,23.72,25.32,28.06,5.94,30.63,1023.93,2051.20,3103.46,3096.00,3329.00,349.70,325.22,22.37,0000 0000 0000 0000 000000
2013-11-16 01:02:08,0.12,0.94,0.00,23.71,25.31,28.04,5.91,30.79,1023.94,2051.15,3103.19,3096.00,3328.99,349.68,325.22,22.38,0000 0000 0000 0000 000000
2013-11-16 01:03:08,0.02,0.94,0.00,23.71,25.31,28.05,6.00,30.92,1023.93,2051.26,3103.07,3095.99,3328.99,350.95,326.40,22.39,0000 0000 0000 0000 000000
2013-11-16 01:04:08,0.09,0.94,0.00,23.73,25.31,28.07,5.91,30.88,1023.94,2051.29,3103.03,3095.99,3328.87,348.92,324.49,22.39,0000 0000 0000 0000 000000
2013-11-16 01:05:08,0.01,0.94,0.00,23.76,25.31,28.05,5.98,30.75,1023.94,2051.23,3103.00,3095.96,3328.78,350.17,325.62,22.40,0000 0000 0000 0000 000000
2013-11-16 01:06:09,0.01,0.94,0.00,23.77,25.30,28.10,5.93,30.83,1023.94,2051.24,3103.00,3095.81,3328.50,349.75,325.22,22.40,0000 0000 0000 0000 000000
2013-11-16 01:07:09,0.07,0.94,0.00,23.77,25.30,28.05,6.02,30.88,1023.94,2051.38,3103.00,3095.70,3328.33,350.20,325.64,22.41,0000 0000 0000 0000 000000
2013-11-16 01:08:09,0.18,0.94,0.00,23.79,25.30,28.02,5.97,30.71,1023.94,2051.51,3102.98,3095.59,3328.19,349.97,325.40,22.41,0000 0000 0000 0000 000000
2013-11-16 01:09:09,0.13,0.94,0.00,23.80,25.30,28.08,6.03,30.92,1023.94,2051.55,3102.96,3095.41,3328.11,350.35,325.47,22.42,0000 0000 0000 0000 000000
2013-11-16 01:10:10,0.09,0.94,0.00,23.78,25.30,27.99,5.90,30.63,1023.92,2051.52,3102.75,3095.21,3328.06,350.05,325.48,22.43,0000 0000 0000 0000 000000
2013-11-16 01:11:10,0.05,0.94,0.00,23.75,25.30,27.96,5.82,30.88,1023.91,2051.50,3102.35,3095.09,3328.03,349.67,325.17,22.43,0000 0000 0000 0000 000000
2013-11-16 01:12:10,0.08,0.94,0.00,23.75,25.30,28.00,5.82,30.79,1023.90,2051.58,3102.14,3095.03,3328.01,350.03,325.49,22.44,0000 0000 0000 0000 000000
2013-11-16 01:13:10,0.08,0.94,0.00,23.76,25.30,28.01,6.02,31.00,1023.92,2051.53,3102.05,3095.01,3328.00,349.88,325.35,22.44,0000 0000 0000 0000 000000
2013-11-16 01:14:11,0.03,0.94,0.00,23.77,25.30,27.98,5.90,30.96,1023.93,2051.59,3102.02,3095.00,3328.00,349.34,324.84,22.45,0000 0000 0000 0000 000000
2013-11-16 01:15:11,0.03,0.94,0.00,23.78,25.30,28.01,6.06,30.75,1023.92,2051.58,3102.00,3095.00,3328.00,350.53,326.11,22.46,0000 0000 0000 0000 000000
2013-11-16 01:16:11,-0.04,0.94,0.00,23.77,25.30,28.11,5.88,30.96,1023.91,2051.57,3102.00,3095.00,3328.00,350.17,325.85,22.46,0000 0000 0000 0000 000000
2013-11-16 01:17:11,-0.01,0.94,0.00,23.77,25.30,28.05,5.98,30.83,1023.90,2051.55,3101.99,3094.98,3327.98,350.52,325.84,22.47,0000 0000 0000 0000 000000
2013-11-16 01:18:11,0.01,0.94,0.00,23.77,25.30,28.06,6.08,30.96,1023.89,2051.56,3101.97,3094.97,3327.92,350.28,325.69,22.47,0000 0000 0000 0000 000000
2013-11-16 01:19:12,0.01,0.94,0.00,23.77,25.30,28.01,5.88,30.96,1023.80,2051.56,3101.92,3094.94,3327.83,350.04,325.45,22.48,0000 0000 0000 0000 000000
2013-11-16 01:20:12,0.03,0.94,0.00,23.76,25.30,28.02,5.75,30.75,1023.82,2051.54,3101.55,3094.86,3327.48,348.80,324.30,22.48,0000 0000 0000 0000 000000
2013-11-16 01:21:12,0.12,0.94,0.00,23.78,25.30,28.03,6.09,31.00,1023.89,2051.64,3101.31,3094.75,3327.25,350.11,325.53,22.49,0000 0000 0000 0000 000000
2013-11-16 01:22:13,0.17,0.94,0.00,23.78,25.30,28.03,6.08,31.13,1023.92,2051.69,3101.12,3094.53,3327.14,350.27,325.69,22.50,0000 0000 0000 0000 000000
2013-11-16 01:23:13,0.13,0.94,0.00,23.78,25.30,28.04,5.89,30.83,1023.94,2051.78,3101.04,3094.31,3327.08,349.56,325.03,22.50,0000 0000 0000 0000 000000
2013-11-16 01:24:13,0.11,0.95,0.00,23.78,25.30,28.03,5.82,30.71,1023.92,2051.76,3101.01,3094.19,3327.03,349.24,324.73,22.51,0000 0000 0000 0000 000000
2013-11-16 01:25:13,0.04,0.95,0.00,23.79,25.30,28.06,5.88,30.71,1023.86,2051.82,3101.00,3094.08,3327.01,349.67,324.82,22.51,0000 0000 0000 0000 000000
2013-11-16 01:26:13,0.06,0.95,0.00,23.79,25.30,28.06,6.00,30.71,1023.75,2051.74,3100.99,3094.03,3327.00,349.77,325.16,22.52,0000 0000 0000 0000 000000
2013-11-16 01:27:14,-0.03,0.95,0.00,23.82,25.30,28.04,5.76,30.54,1023.87,2051.76,3100.97,3094.02,3327.00,349.14,325.02,22.53,0000 0000 0000 0000 000000
2013-11-16 01:28:14,0.03,0.95,0.00,23.85,25.30,28.02,5.97,30.88,1023.90,2051.81,3100.96,3094.00,3327.00,350.26,325.59,22.53,0000 0000 0000 0000 000000
2013-11-16 01:29:14,0.02,0.95,0.00,23.83,25.30,28.00,6.13,31.08,1023.93,2051.82,3100.80,3094.00,3327.00,350.32,325.60,22.54,0000 0000 0000 0000 000000
2013-11-16 01:30:15,0.02,0.95,0.00,23.82,25.30,28.10,5.83,30.67,1023.93,2051.78,3100.52,3094.00,3327.00,349.22,325.13,22.54,0000 0000 0000 0000 000000
2013-11-16 01:31:15,0.02,0.95,0.00,23.85,25.30,28.10,5.96,30.92,1023.86,2051.79,3100.25,3094.00,3326.99,350.41,325.92,22.55,0000 0000 0000 0000 000000
2013-11-16 01:32:15,0.06,0.95,0.00,23.85,25.30,28.04,6.02,31.04,1023.68,2051.87,3100.11,3093.98,3326.99,349.85,324.77,22.56,0000 0000 0000 0000 000000
2013-11-16 01:33:15,0.07,0.95,0.00,23.81,25.30,28.05,6.06,31.04,1023.75,2051.92,3100.05,3093.98,3326.97,350.40,324.99,22.56,0000 0000 0000 0000 000000
2013-11-16 01:34:16,0.03,0.95,0.00,23.82,25.30,28.06,5.91,30.58,1023.81,2051.88,3100.02,3093.96,3326.91,349.88,325.59,22.57,0000 0000 0000 0000 000000
2013-11-16 01:35:16,0.01,0.95,0.00,23.82,25.30,28.05,5.97,30.42,1023.64,2051.92,3100.00,3093.93,3326.70,350.24,325.53,22.57,0000 0000 0000 0000 000000
2013-11-16 01:36:16,0.05,0.95,0.00,23.82,25.30,28.01,5.98,30.42,1023.65,2051.88,3100.00,3093.75,3326.40,349.10,324.47,22.58,0000 0000 0000 0000 000000
2013-11-16 01:37:17,0.05,0.95,0.00,23.82,25.30,28.06,6.11,31.13,1023.75,2051.83,3100.00,3093.46,3326.23,350.65,325.94,22.58,0000 0000 0000 0000 000000
2013-11-16 01:38:17,0.05,0.95,0.00,23.80,25.30,28.07,5.94,31.00,1023.83,2051.66,3099.99,3093.20,3326.10,350.63,325.98,22.59,0000 0000 0000 0000 000000
2013-11-16 01:39:17,-0.04,0.95,0.00,23.81,25.30,28.08,5.98,31.17,1023.92,2051.51,3099.92,3093.08,3326.03,349.31,324.77,22.60,0000 0000 0000 0000 000000
2013-11-16 01:40:18,-0.08,0.95,0.00,23.79,25.30,28.05,5.99,31.04,1023.93,2051.51,3099.80,3093.03,3326.01,350.41,325.81,22.60,0000 0000 0000 0000 000000
2013-11-16 01:41:18,0.02,0.95,0.00,23.79,25.30,28.04,5.99,30.71,1023.92,2051.55,3099.47,3093.00,3326.00,349.30,324.77,22.61,0000 0000 0000 0000 000000
2013-11-16 01:42:18,0.06,0.95,0.00,23.83,25.30,28.06,5.98,30.88,1023.94,2051.56,3099.22,3093.00,3326.00,350.07,325.11,22.61,0000 0000 0000 0000 000000
2013-11-16 01:43:18,0.06,0.95,0.00,23.84,25.30,28.07,5.92,31.29,1023.94,2051.45,3099.08,3093.00,3325.99,349.71,325.46,22.62,0000 0000 0000 0000 000000
2013-11-16 01:44:18,-0.02,0.95,0.00,23.84,25.30,28.14,6.02,31.08,1023.91,2051.47,3099.02,3093.00,3325.95,350.35,325.89,22.63,0000 0000 0000 0000 000000
2013-11-16 01:45:19,-0.01,0.95,0.00,23.82,25.30,28.12,5.93,31.08,1023.83,2051.45,3099.00,3093.00,3325.84,349.61,325.04,22.63,0000 0000 0000 0000 000000
2013-11-16 01:46:19,0.00,0.95,0.00,23.81,25.30,28.03,6.07,31.13,1023.81,2051.41,3098.97,3092.97,3325.75,350.47,325.81,22.64,0000 0000 0000 0000 000000
2013-11-16 01:47:19,0.01,0.95,0.00,23.82,25.30,28.11,5.98,30.92,1023.80,2051.52,3098.95,3092.96,3325.68,350.16,325.06,22.64,0000 0000 0000 0000 000000
2013-11-16 01:48:19,0.07,0.95,0.00,23.84,25.30,28.11,5.95,30.79,1023.67,2051.67,3098.95,3092.94,3325.57,349.73,324.69,22.65,0000 0000 0000 0000 000000
2013-11-16 01:49:20,0.16,0.95,0.00,23.85,25.31,28.06,5.85,30.67,1023.79,2051.71,3098.84,3092.80,3325.38,349.06,324.44,22.65,0000 0000 0000 0000 000000
2013-11-16 01:50:20,0.13,0.95,0.00,23.87,25.31,28.08,6.03,30.92,1023.74,2051.74,3098.55,3092.60,3325.17,349.94,324.84,22.66,0000 0000 0000 0000 000000
2013-11-16 01:51:20,0.10,0.95,0.00,23.88,25.31,28.11,6.02,31.00,1023.52,2051.72,3098.22,3092.37,3325.09,350.25,325.15,22.67,0000 0000 0000 0000 000000
2013-11-16 01:52:21,0.10,0.95,0.00,23.88,25.31,28.04,6.14,31.50,1023.49,2051.69,3098.08,3092.18,3325.05,350.41,325.39,22.67,0000 0000 0000 0000 000000
2013-11-16 01:53:21,0.05,0.95,0.00,23.86,25.31,28.07,5.92,31.17,1023.47,2051.74,3098.03,3092.09,3325.03,349.40,324.25,22.68,0000 0000 0000 0000 000000
2013-11-16 01:54:21,0.06,0.95,0.00,23.87,25.32,28.11,5.95,31.33,1023.52,2051.72,3098.00,3092.03,3325.01,348.55,324.51,22.68,0000 0000 0000 0000 000000
2013-11-16 01:55:21,0.01,0.95,0.00,23.87,25.32,28.12,6.05,31.00,1023.48,2051.76,3097.99,3092.01,3325.00,349.51,324.74,22.69,0000 0000 0000 0000 000000
2013-11-16 01:56:22,0.04,0.95,0.00,23.87,25.32,28.13,5.94,31.13,1023.58,2051.74,3097.98,3092.00,3325.00,349.80,325.04,22.70,0000 0000 0000 0000 000000
2013-11-16 01:57:22,0.01,0.95,0.00,23.86,25.32,28.15,6.16,31.00,1023.80,2051.79,3097.96,3092.00,3324.98,349.52,324.85,22.70,0000 0000 0000 0000 000000
2013-11-16 01:58:22,0.04,0.95,0.00,23.86,25.32,28.07,5.93,31.21,1023.92,2051.84,3097.96,3092.00,3324.97,350.11,325.45,22.71,0000 0000 0000 0000 000000
2013-11-16 01:59:23,0.03,0.95,0.00,23.86,25.32,28.07,5.94,30.92,1023.94,2051.83,3097.91,3092.00,3324.92,350.13,325.47,22.71,0000 0000 0000 0000 000000
2013-11-16 02:00:23,0.02,0.95,0.00,23.87,25.32,28.08,6.06,30.83,1023.94,2051.88,3097.77,3092.00,3324.88,350.44,325.75,22.72,0000 0000 0000 0000 000000
2013-11-16 02:01:23,0.05,0.95,0.00,23.86,25.32,28.08,5.93,30.88,1023.94,2051.84,3097.36,3091.98,3324.63,349.40,324.82,22.73,0000 0000 0000 0000 000000
2013-11-16 02:02:23,0.07,0.95,0.00,23.85,25.32,28.16,5.89,30.92,1023.94,2051.72,3097.13,3091.94,3324.36,349.57,324.97,22.73,0000 0000 0000 0000 000000
2013-11-16 02:03:24,-0.03,0.95,0.00,23.83,25.32,28.13,5.90,31.21,1023.94,2051.62,3097.05,3091.78,3324.16,349.42,325.21,22.74,0000 0000 0000 0000 000000
2013-11-16 02:04:24,-0.01,0.95,0.00,23.84,25.32,28.07,5.96,30.88,1023.94,2051.59,3097.01,3091.58,3324.09,349.73,325.12,22.74,0000 0000 0000 0000 000000
2013-11-16 02:05:24,0.04,0.95,0.00,23.87,25.32,28.07,5.96,30.96,1023.95,2051.45,3097.00,3091.26,3324.03,349.76,324.59,22.75,0000 0000 0000 0000 000000
2013-11-16 02:06:24,-0.03,0.95,0.00,23.87,25.32,28.09,5.86,30.96,1023.95,2051.40,3097.00,3091.12,3324.01,349.25,324.15,22.75,0000 0000 0000 0000 000000
2013-11-16 02:07:25,0.00,0.95,0.00,23.88,25.32,28.02,5.88,31.00,1023.94,2051.46,3096.99,3091.07,3324.00,348.85,324.16,22.76,0000 0000 0000 0000 000000
2013-11-16 02:08:25,0.07,0.95,0.00,23.89,25.32,28.08,5.94,30.67,1023.95,2051.55,3096.98,3091.05,3324.00,349.69,325.26,22.77,0000 0000 0000 0000 000000
2013-11-16 02:09:25,0.11,0.96,0.00,23.90,25.32,28.05,6.12,30.79,1023.96,2051.64,3096.96,3091.03,3323.99,351.08,325.74,22.77,0000 0000 0000 0000 000000
2013-11-16 02:10:26,0.04,0.96,0.00,23.91,25.32,28.06,5.79,30.71,1023.94,2051.63,3096.86,3091.00,3323.98,349.15,324.12,22.78,0000 0000 0000 0000 000000
2013-11-16 02:11:26,0.04,0.96,0.00,23.93,25.32,28.07,5.88,30.75,1023.94,2051.68,3096.57,3091.00,3323.97,349.32,324.68,22.78,0000 0000 0000 0000 000000
2013-11-16 02:12:26,0.11,0.96,0.00,23.95,25.32,28.06,5.98,30.71,1023.94,2051.72,3096.29,3091.00,3323.97,350.05,325.41,22.79,0000 0000 0000 0000 000000
2013-11-16 02:13:26,0.04,0.96,0.00,23.92,25.32,28.03,5.86,30.75,1023.94,2051.59,3096.12,3090.99,3323.90,349.42,324.75,22.80,0000 0000 0000 0000 000000
2013-11-16 02:14:27,-0.05,0.96,0.00,23.90,25.32,28.15,6.04,30.92,1023.94,2051.48,3096.04,3090.97,3323.62,350.00,325.32,22.80,0000 0000 0000 0000 000000
2013-11-16 02:15:27,-0.03,0.96,0.00,23.89,25.32,28.15,6.03,31.21,1023.94,2051.40,3096.01,3090.91,3323.35,349.79,325.13,22.81,0000 0000 0000 0000 000000
2013-11-16 02:16:27,-0.02,0.96,0.00,23.91,25.33,28.06,6.05,31.04,1023.94,2051.42,3096.00,3090.91,3323.17,349.04,324.28,22.81,0000 0000 0000 0000 000000
2013-11-16 02:17:27,0.06,0.96,0.00,23.91,25.33,28.11,5.92,31.29,1023.94,2051.46,3095.99,3090.81,3323.11,349.37,324.71,22.82,0000 0000 0000 0000 000000
2013-11-16 02:18:28,0.09,0.96,0.00,23.89,25.34,28.14,5.93,31.04,1023.94,2051.42,3095.98,3090.57,3323.04,349.74,325.08,22.82,0000 0000 0000 0000 000000
2013-11-16 02:19:28,0.01,0.96,0.00,23.91,25.34,28.15,5.88,31.17,1023.94,2051.32,3095.84,3090.24,3323.01,348.88,324.46,22.83,0000 0000 0000 0000 000000
2013-11-16 02:20:28,0.02,0.96,0.00,23.90,25.34,28.07,5.88,30.96,1023.94,2051.24,3095.62,3090.11,3323.00,350.20,325.43,22.84,0000 0000 0000 0000 000000
2013-11-16 02:21:28,0.01,0.96,0.00,23.90,25.34,28.05,6.10,31.29,1023.90,2051.21,3095.29,3090.06,3322.99,351.05,326.28,22.84,0000 0000 0000 0000 000000
2013-11-16 02:22:29,0.09,0.96,0.00,23.90,25.35,28.15,5.98,31.04,1023.94,2051.33,3095.12,3090.02,3322.99,350.01,325.31,22.85,0000 0000 0000 0000 000000
2013-11-16 02:23:29,0.13,0.96,0.00,23.90,25.35,28.13,6.02,30.96,1023.94,2051.40,3095.06,3090.00,3322.97,350.93,325.88,22.85,0000 0000 0000 0000 000000
2013-11-16 02:24:29,0.04,0.96,0.00,23.90,25.35,28.14,5.94,31.04,1023.94,2051.39,3095.02,3090.00,3322.95,350.12,325.29,22.86,0000 0000 0000 0000 000000
2013-11-16 02:25:30,-0.03,0.96,0.00,23.92,25.35,28.11,5.92,31.08,1023.94,2051.36,3095.00,3090.00,3322.92,350.00,325.29,22.87,0000 0000 0000 0000 000000
2013-11-16 02:26:30,0.00,0.96,0.00,23.91,25.35,28.14,5.93,31.08,1023.94,2051.39,3095.00,3090.00,3322.78,350.09,325.15,22.87,0000 0000 0000 0000 000000
2013-11-16 02:27:30,0.01,0.96,0.00,23.91,25.35,28.18,6.10,31.42,1023.94,2051.32,3095.00,3090.00,3322.54,349.29,324.56,22.88,0000 0000 0000 0000 000000
2013-11-16 02:28:30,0.00,0.96,0.00,23.90,25.35,28.12,6.14,31.13,1023.94,2051.26,3094.94,3089.99,3322.28,350.28,325.57,22.88,0000 0000 0000 0000 000000
2013-11-16 02:29:30,0.04,0.96,0.00,23.90,25.35,28.11,5.98,31.17,1023.94,2051.35,3094.88,3089.99,3322.15,350.51,325.49,22.89,0000 0000 0000 0000 000000
2013-11-16 02:30:31,0.06,0.96,0.00,23.90,25.35,28.18,5.92,31.13,1023.94,2051.32,3094.66,3089.89,3322.07,348.93,324.74,22.90,0000 0000 0000 0000 000000
2013-11-16 02:31:31,0.02,0.96,0.00,23.91,25.35,28.11,6.08,31.17,1023.94,2051.26,3094.31,3089.66,3322.03,349.70,325.27,22.90,0000 0000 0000 0000 000000
2013-11-16 02:32:31,0.08,0.96,0.00,23.93,25.35,28.11,6.02,31.13,1023.94,2051.29,3094.14,3089.36,3322.01,350.40,325.66,22.91,0000 0000 0000 0000 000000
2013-11-16 02:33:32,0.11,0.96,0.00,23.92,25.35,28.08,5.89,30.83,1023.94,2051.30,3094.05,3089.26,3322.00,350.35,325.61,22.91,0000 0000 0000 0000 000000
2013-11-16 02:34:32,0.05,0.96,0.00,23.92,25.35,28.19,5.96,31.29,1023.94,2051.33,3094.01,3089.16,3322.00,350.24,325.51,22.92,0000 0000 0000 0000 000000
2013-11-16 02:35:32,0.01,0.96,0.00,23.93,25.35,28.14,5.87,30.96,1023.95,2051.23,3094.00,3089.09,3321.99,350.73,325.96,22.92,0000 0000 0000 0000 000000
2013-11-16 02:36:32,-0.03,0.96,0.00,23.93,25.35,28.20,5.97,31.25,1023.94,2051.19,3094.00,3089.04,3321.96,349.40,324.71,22.93,0000 0000 0000 0000 000000